Weather History for Mount Sterling, KY

Change the Weather History Date:

Tuesday, May 28, 2013

  Actual Average Record
Temperature  
Mean Temperature 74 °F -  
Max Temperature 82 °F 77 °F 82 °F (2013)
Min Temperature 66 °F 56 °F 66 °F (2013)
Cooling Degree Days 9    
Growing Degree Days 24 (Base 50)    
Moisture  
Dew Point 59 °F    
Average Humidity 59    
Maximum Humidity 83    
Minimum Humidity 42    
Precipitation  
Precipitation 0.00 in - - ()
Sea Level Pressure  
Sea Level Pressure 30.08 in    
Wind  
Wind Speed 8 mph (WSW)    
Max Wind Speed 17 mph    
Max Gust Speed 28 mph    
Visibility 10 miles    
Events Rain    
Averages and records for this station are not official NWS values.
T = Trace of Precipitation, MM = Missing Value Source: NWS Daily Summary

Daily Weather History Graph

Daily Weather History Graph

Search for Another Location

Airport:

Trip Planner

Search our weather history database for the weather conditions in past years. The results will help you decide how hot, cold, wet, or windy it might be!

Date:

Astronomy

May. 28, 2013 Rise Set
Actual Time 6:16 AM EDT 8:50 PM EDT
Civil Twilight 5:45 AM EDT 9:21 PM EDT
Nautical Twilight 5:07 AM EDT 9:59 PM EDT
Astronomical Twilight 4:25 AM EDT 10:41 PM EDT
Moon No Moon Rise 10:02 AM EDT (5/28)
Length of Visible Light 15h 35m
Length of Day
14h 33m
Waning Gibbous, 83% of the Moon is Illuminated
May 28
Waning Gibbous
May 31
Last Quarter
Jun 8
New
Jun 16
First Quarter
Jun 23
Full

Hourly Weather History & Observations

Time (EDT) Temp. Heat Index Dew Point Humidity Pressure Visibility Wind Dir Wind Speed Gust Speed Precip Events Conditions
12:15 AM 71.6 °F - 53.6 °F 53% 30.07 in 10.0 mi SSW 9.2 mph - N/A   Scattered Clouds
12:35 AM 71.6 °F - 55.4 °F 57% 30.07 in 10.0 mi SW 8.1 mph - N/A   Mostly Cloudy
12:55 AM 71.6 °F - 55.4 °F 57% 30.07 in 10.0 mi SW 5.8 mph - N/A   Overcast
1:15 AM 69.8 °F - 55.4 °F 60% 30.07 in 10.0 mi SW 6.9 mph - N/A   Mostly Cloudy
1:35 AM 69.8 °F - 55.4 °F 60% 30.06 in 10.0 mi SSW 10.4 mph - N/A   Scattered Clouds
1:55 AM 69.8 °F - 55.4 °F 60% 30.06 in 10.0 mi SW 5.8 mph - N/A   Scattered Clouds
2:15 AM 69.8 °F - 55.4 °F 60% 30.06 in 10.0 mi SW 8.1 mph - N/A   Clear
2:35 AM 68.0 °F - 57.2 °F 68% 30.06 in 10.0 mi SW 6.9 mph - N/A   Clear
2:55 AM 68.0 °F - 57.2 °F 68% 30.05 in 10.0 mi WSW 4.6 mph - N/A   Clear
3:15 AM 68.0 °F - 57.2 °F 68% 30.05 in 10.0 mi SW 6.9 mph - N/A   Clear
3:35 AM 68.0 °F - 57.2 °F 68% 30.06 in 10.0 mi SW 5.8 mph - N/A   Clear
3:55 AM 68.0 °F - 57.2 °F 68% 30.06 in 10.0 mi SW 6.9 mph - N/A   Scattered Clouds
4:15 AM 68.0 °F - 57.2 °F 68% 30.06 in 10.0 mi WSW 6.9 mph - N/A   Overcast
4:35 AM 68.0 °F - 59.0 °F 73% 30.07 in 10.0 mi WSW 5.8 mph - N/A   Overcast
4:55 AM 68.0 °F - 59.0 °F 73% 30.08 in 10.0 mi SW 6.9 mph - N/A   Mostly Cloudy
5:15 AM 68.0 °F - 59.0 °F 73% 30.08 in 10.0 mi WSW 5.8 mph - N/A   Overcast
5:35 AM 68.0 °F - 59.0 °F 73% 30.08 in 10.0 mi WSW 6.9 mph - N/A   Mostly Cloudy
5:55 AM 68.0 °F - 59.0 °F 73% 30.09 in 10.0 mi WSW 4.6 mph - N/A   Mostly Cloudy
6:15 AM 68.0 °F - 59.0 °F 73% 30.09 in 10.0 mi WSW 5.8 mph - N/A Rain Light Rain
6:35 AM 66.2 °F - 59.0 °F 78% 30.10 in 10.0 mi WSW 5.8 mph - N/A Rain Light Rain
6:55 AM 68.0 °F - 59.0 °F 73% 30.10 in 10.0 mi SW 4.6 mph - N/A Rain Light Rain
7:15 AM 68.0 °F - 59.0 °F 73% 30.10 in 10.0 mi SW 5.8 mph - N/A   Mostly Cloudy
7:35 AM 68.0 °F - 59.0 °F 73% 30.12 in 10.0 mi WSW 5.8 mph - N/A   Mostly Cloudy
7:55 AM 68.0 °F - 59.0 °F 73% 30.12 in 10.0 mi SW 5.8 mph - N/A   Overcast
8:15 AM 68.0 °F - 59.0 °F 73% 30.12 in 10.0 mi SW 5.8 mph - N/A   Mostly Cloudy
8:35 AM 69.8 °F - 60.8 °F 73% 30.13 in 10.0 mi SW 3.5 mph - N/A   Mostly Cloudy
8:55 AM 69.8 °F - 60.8 °F 73% 30.13 in 10.0 mi SSW 5.8 mph - N/A   Mostly Cloudy
9:15 AM 71.6 °F - 60.8 °F 69% 30.12 in 10.0 mi SW 5.8 mph - N/A   Scattered Clouds
9:35 AM 71.6 °F - 60.8 °F 69% 30.13 in 10.0 mi SW 6.9 mph - N/A   Scattered Clouds
9:55 AM 71.6 °F - 60.8 °F 69% 30.13 in 10.0 mi SW 8.1 mph - N/A   Scattered Clouds
10:15 AM 75.2 °F - 60.8 °F 61% 30.13 in 10.0 mi WSW 9.2 mph 16.1 mph N/A   Clear
10:35 AM 77.0 °F - 60.8 °F 57% 30.13 in 10.0 mi WSW 16.1 mph 20.7 mph N/A   Clear
10:55 AM 78.8 °F - 60.8 °F 54% 30.13 in 10.0 mi WSW 15.0 mph 18.4 mph N/A   Clear
11:15 AM 78.8 °F - 60.8 °F 54% 30.12 in 10.0 mi WSW 11.5 mph 21.9 mph N/A   Clear
11:35 AM 78.8 °F - 60.8 °F 54% 30.12 in 10.0 mi WSW 16.1 mph 21.9 mph N/A   Clear
11:55 AM 78.8 °F - 60.8 °F 54% 30.12 in 10.0 mi WSW 16.1 mph 23.0 mph N/A   Clear
12:15 PM 80.6 °F 81.5 °F 60.8 °F 51% 30.12 in 10.0 mi West 10.4 mph 19.6 mph N/A   Clear
12:35 PM 80.6 °F 81.5 °F 60.8 °F 51% 30.12 in 10.0 mi West 12.7 mph 19.6 mph N/A   Scattered Clouds
12:55 PM 80.6 °F 81.5 °F 60.8 °F 51% 30.12 in 10.0 mi WSW 11.5 mph 24.2 mph N/A   Scattered Clouds
1:15 PM 80.6 °F 81.5 °F 60.8 °F 51% 30.12 in 10.0 mi West 12.7 mph 23.0 mph N/A   Scattered Clouds
1:35 PM 82.4 °F 82.9 °F 60.8 °F 48% 30.11 in 10.0 mi West 16.1 mph 21.9 mph N/A   Scattered Clouds
1:55 PM 82.4 °F 82.9 °F 60.8 °F 48% 30.11 in 10.0 mi West 17.3 mph 24.2 mph N/A   Scattered Clouds
2:15 PM 82.4 °F 82.9 °F 60.8 °F 48% 30.10 in 10.0 mi WSW 16.1 mph 24.2 mph N/A   Scattered Clouds
2:35 PM 82.4 °F 82.5 °F 59.0 °F 45% 30.09 in 10.0 mi West 15.0 mph 24.2 mph N/A   Scattered Clouds
2:55 PM 82.4 °F 82.9 °F 60.8 °F 48% 30.08 in 10.0 mi WSW 13.8 mph 21.9 mph N/A   Scattered Clouds
3:15 PM 82.4 °F 82.5 °F 59.0 °F 45% 30.08 in 10.0 mi WSW 13.8 mph 19.6 mph N/A   Scattered Clouds
3:35 PM 82.4 °F 82.9 °F 60.8 °F 48% 30.08 in 10.0 mi WSW 11.5 mph 23.0 mph N/A   Scattered Clouds
3:55 PM 82.4 °F 82.5 °F 59.0 °F 45% 30.07 in 10.0 mi WSW 17.3 mph 27.6 mph N/A   Clear
4:15 PM 82.4 °F 82.9 °F 60.8 °F 48% 30.07 in 10.0 mi SW 11.5 mph 21.9 mph N/A   Clear
4:35 PM 82.4 °F 82.5 °F 59.0 °F 45% 30.06 in 10.0 mi SW 15.0 mph 20.7 mph N/A   Clear
4:55 PM 82.4 °F 82.5 °F 59.0 °F 45% 30.06 in 10.0 mi WSW 12.7 mph 19.6 mph N/A   Clear
5:15 PM 82.4 °F 82.5 °F 59.0 °F 45% 30.06 in 10.0 mi WSW 15.0 mph 18.4 mph N/A   Clear
5:35 PM 82.4 °F 82.0 °F 57.2 °F 42% 30.06 in 10.0 mi WSW 11.5 mph 20.7 mph N/A   Clear
5:55 PM 82.4 °F 82.5 °F 59.0 °F 45% 30.05 in 10.0 mi SW 11.5 mph - N/A   Clear
6:15 PM 82.4 °F 82.5 °F 59.0 °F 45% 30.04 in 10.0 mi WSW 10.4 mph 18.4 mph N/A   Clear
6:35 PM 82.4 °F 82.5 °F 59.0 °F 45% 30.03 in 10.0 mi WSW 12.7 mph 18.4 mph N/A   Clear
6:55 PM 80.6 °F 81.1 °F 59.0 °F 48% 30.03 in 10.0 mi WSW 10.4 mph 16.1 mph N/A   Clear
7:15 PM 80.6 °F 81.1 °F 59.0 °F 48% 30.02 in 10.0 mi WSW 8.1 mph - N/A   Clear
7:35 PM 80.6 °F 80.8 °F 57.2 °F 45% 30.02 in 10.0 mi WSW 8.1 mph - N/A   Clear
7:55 PM 78.8 °F - 59.0 °F 51% 30.03 in 10.0 mi WSW 8.1 mph - N/A   Clear
8:15 PM 77.0 °F - 59.0 °F 54% 30.03 in 10.0 mi West 5.8 mph - N/A   Clear
8:35 PM 77.0 °F - 59.0 °F 54% 30.03 in 10.0 mi Calm Calm - N/A   Clear
8:55 PM 77.0 °F - 59.0 °F 54% 30.04 in 10.0 mi SW 4.6 mph - N/A   Clear
9:15 PM 73.4 °F - 59.0 °F 61% 30.04 in 10.0 mi Calm Calm - N/A   Clear
9:35 PM 73.4 °F - 59.0 °F 61% 30.05 in 10.0 mi SSW 3.5 mph - N/A   Clear
9:55 PM 73.4 °F - 59.0 °F 61% 30.06 in 10.0 mi SSW 4.6 mph - N/A   Clear
10:15 PM 66.2 °F - 60.8 °F 83% 30.07 in 10.0 mi Calm Calm - N/A   Clear
10:35 PM 71.6 °F - 59.0 °F 64% 30.07 in 10.0 mi SSW 4.6 mph - N/A   Clear
10:55 PM 69.8 °F - 59.0 °F 68% 30.07 in 10.0 mi SSW 4.6 mph - N/A   Clear
11:15 PM 69.8 °F - 59.0 °F 68% 30.07 in 10.0 mi SW 4.6 mph - N/A   Clear
11:35 PM 68.0 °F - 59.0 °F 73% 30.07 in 10.0 mi SW 4.6 mph - N/A   Clear
11:55 PM 69.8 °F - 59.0 °F 68% 30.07 in 10.0 mi SW 6.9 mph - N/A   Clear